owner,sensor,date,latitude,longitude,vertical_datum,wind_speed,wind_to_direction,wind_speed_of_gust,qcFlag 
TABS,ioos:station:wmo:42046:1,2006-09-03T14:39:00Z,27.8903,-94.0367,4.0,3.114883625,55.59534503,4.61,'11111222,11111222,11111222' 
TABS,ioos:station:wmo:42046:1,2006-09-03T15:09:00Z,27.8903,-94.0367,4.0,3.21726592,56.40837584,5.15,'11111222,11111222,11111222' 
TABS,ioos:station:wmo:42046:1,2006-09-03T15:39:00Z,27.8903,-94.0367,4.0,2.875586897,26.65388528,4.72,'11111222,11111222,11111222' 
TABS,ioos:station:wmo:42046:1,2006-09-03T16:09:00Z,27.8903,-94.0367,4.0,2.508326135,50.66204898,4.19,'11111222,11111222,11111222' 
TABS,ioos:station:wmo:42046:1,2006-09-03T16:39:00Z,27.8903,-94.0367,4.0,2.498339449,42.56648895,4.09,'11111222,11111222,11111222' 
TABS,ioos:station:wmo:42046:1,2006-09-03T17:09:00Z,27.8903,-94.0367,4.0,1.834039258,37.24448534,3.67,'11111222,11111222,11111222' 
TABS,ioos:station:wmo:42046:1,2006-09-03T17:39:00Z,27.8903,-94.0367,4.0,2.496337317,34.39002353,4.29,'11111222,11111222,11111222' 
TABS,ioos:station:wmo:42046:1,2006-09-03T18:09:00Z,27.8903,-94.0367,4.0,2.997899264,18.07206943,5.61,'11111222,11111222,11111222' 
TABS,ioos:station:wmo:42046:1,2006-09-03T18:39:00Z,27.8903,-94.0367,4.0,2.467812797,44.83551386,4.19,'11111222,11111222,11111222' 
TABS,ioos:station:wmo:42046:1,2006-09-03T19:09:00Z,27.8903,-94.0367,4.0,1.276636205,84.15502687,2.67,'11111222,11111222,11111222' 
TABS,ioos:station:wmo:42046:1,2006-09-03T19:39:00Z,27.8903,-94.0367,4.0,1.935406934,161.0036007,3.09,'11111222,11111222,11111222' 
TABS,ioos:station:wmo:42046:1,2006-09-03T20:09:00Z,27.8903,-94.0367,4.0,1.786309044,122.8897462,3.09,'11111222,11111222,11111222' 
TABS,ioos:station:wmo:42046:1,2006-09-03T20:39:00Z,27.8903,-94.0367,4.0,1.926577276,110.0342972,3.74,'11111222,11111222,11111222' 
TABS,ioos:station:wmo:42046:1,2006-09-03T21:09:00Z,27.8903,-94.0367,4.0,1.907590103,95.11325874,3.28,'11111222,11111222,11111222' 
TABS,ioos:station:wmo:42046:1,2006-09-03T21:39:00Z,27.8903,-94.0367,4.0,2.43298171,74.99234878,3.76,'11111222,11111222,11111222' 
TABS,ioos:station:wmo:42046:1,2006-09-03T22:09:00Z,27.8903,-94.0367,4.0,2.203361069,66.45959486,4.1,'11111222,11111222,11111222' 
TABS,ioos:station:wmo:42046:1,2006-09-03T22:39:00Z,27.8903,-94.0367,4.0,2.429094481,85.04006675,4.23,'11111222,11111222,11111222' 
TABS,ioos:station:wmo:42046:1,2006-09-03T23:09:00Z,27.8903,-94.0367,4.0,3.193117599,79.53426513,4.64,'11111222,11111222,11111222' 
TABS,ioos:station:wmo:42046:1,2006-09-03T23:39:00Z,27.8903,-94.0367,4.0,3.127714821,74.23035936,5.28,'11111222,11111222,11111222' 
TABS,ioos:station:wmo:42046:1,2006-09-04T00:09:00Z,27.8903,-94.0367,4.0,3.181760519,70.53961215,4.6,'11111222,11111222,11111222' 
TABS,ioos:station:wmo:42046:1,2006-09-04T00:39:00Z,27.8903,-94.0367,4.0,3.235629769,75.3191417,4.72,'11111222,11111222,11111222' 
TABS,ioos:station:wmo:42046:1,2006-09-04T01:09:00Z,27.8903,-94.0367,4.0,2.747544358,59.60811709,3.93,'11111222,11111222,11111222' 
TABS,ioos:station:wmo:42046:1,2006-09-04T01:39:00Z,27.8903,-94.0367,4.0,2.947032406,67.87329601,4.83,'11111222,11111222,11111222' 
TABS,ioos:station:wmo:42046:1,2006-09-04T02:09:00Z,27.8903,-94.0367,4.0,3.381626827,68.67016744,5.36,'11111222,11111222,11111222' 
TABS,ioos:station:wmo:42046:1,2006-09-04T02:39:00Z,27.8903,-94.0367,4.0,2.691560885,60.38678472,4.15,'11111222,11111222,11111222' 
TABS,ioos:station:wmo:42046:1,2006-09-04T03:09:00Z,27.8903,-94.0367,4.0,3.56287805,65.80855259,5.42,'11111222,11111222,11111222' 
TABS,ioos:station:wmo:42046:1,2006-09-04T03:39:00Z,27.8903,-94.0367,4.0,3.114642837,56.25857019,5.22,'11111222,11111222,11111222' 
TABS,ioos:station:wmo:42046:1,2006-09-04T04:09:00Z,27.8903,-94.0367,4.0,3.683313725,56.7410253,5.37,'11111222,11111222,11111222' 
TABS,ioos:station:wmo:42046:1,2006-09-04T04:39:00Z,27.8903,-94.0367,4.0,3.353937984,57.54156486,5.5,'11111222,11111222,11111222' 
TABS,ioos:station:wmo:42046:1,2006-09-04T05:09:00Z,27.8903,-94.0367,4.0,3.905188856,68.36168845,5.83,'11111222,11111222,11111222' 
TABS,ioos:station:wmo:42046:1,2006-09-04T05:39:00Z,27.8903,-94.0367,4.0,3.954870415,73.39750859,5.7,'11111222,11111222,11111222' 
TABS,ioos:station:wmo:42046:1,2006-09-04T06:09:00Z,27.8903,-94.0367,4.0,3.70519905,65.44050163,5.46,'11111222,11111222,11111222' 
TABS,ioos:station:wmo:42046:1,2006-09-04T06:39:00Z,27.8903,-94.0367,4.0,4.24004717,78.84867999,5.95,'11111222,11111222,11111222' 
TABS,ioos:station:wmo:42046:1,2006-09-04T07:09:00Z,27.8903,-94.0367,4.0,4.807587753,93.21990829,5.99,'11111222,11111222,11111222' 
TABS,ioos:station:wmo:42046:1,2006-09-04T07:39:00Z,27.8903,-94.0367,4.0,4.210011876,84.41087593,6.48,'11111222,11111222,11111222' 
TABS,ioos:station:wmo:42046:1,2006-09-04T08:09:00Z,27.8903,-94.0367,4.0,4.399693171,79.78793922,6.25,'11111222,11111222,11111222' 
TABS,ioos:station:wmo:42046:1,2006-09-04T08:39:00Z,27.8903,-94.0367,4.0,4.223091285,75.04197856,6.06,'11111222,11111222,11111222' 
TABS,ioos:station:wmo:42046:1,2006-09-04T09:09:00Z,27.8903,-94.0367,4.0,3.810013123,90.15080284,5.19,'11111222,11111222,11111222' 
TABS,ioos:station:wmo:42046:1,2006-09-04T09:39:00Z,27.8903,-94.0367,4.0,3.780211634,90.60670142,5.25,'11111222,11111222,11111222' 
TABS,ioos:station:wmo:42046:1,2006-09-04T10:09:00Z,27.8903,-94.0367,4.0,3.103626911,92.77063024,4.74,'11111222,11111222,11111222' 
TABS,ioos:station:wmo:42046:1,2006-09-04T10:39:00Z,27.8903,-94.0367,4.0,2.500559937,97.35278308,3.9,'11111222,11111222,11111222' 
TABS,ioos:station:wmo:42046:1,2006-09-04T11:09:00Z,27.8903,-94.0367,4.0,2.820868661,88.57763875,4.11,'11111222,11111222,11111222' 
TABS,ioos:station:wmo:42046:1,2006-09-04T11:39:00Z,27.8903,-94.0367,4.0,2.984845055,93.26542569,4.6,'11111222,11111222,11111222' 
TABS,ioos:station:wmo:42046:1,2006-09-04T12:09:00Z,27.8903,-94.0367,4.0,2.926841301,93.91866062,4.25,'11111222,11111222,11111222' 
TABS,ioos:station:wmo:42046:1,2006-09-04T12:39:00Z,27.8903,-94.0367,4.0,3.021208368,94.93729231,4.75,'11111222,11111222,11111222' 
TABS,ioos:station:wmo:42046:1,2006-09-04T13:09:00Z,27.8903,-94.0367,4.0,3.022201185,81.6281959,4.7,'11111222,11111222,11111222' 
TABS,ioos:station:wmo:42046:1,2006-09-04T13:39:00Z,27.8903,-94.0367,4.0,2.515094432,65.57453492,3.69,'11111222,11111222,11111222' 
TABS,ioos:station:wmo:42046:1,2006-09-04T14:09:00Z,27.8903,-94.0367,4.0,2.895272008,79.85405837,4.28,'11111222,11111222,11111222' 
TABS,ioos:station:wmo:42046:1,2006-09-04T14:39:00Z,27.8903,-94.0367,4.0,2.744886154,71.30064,4.03,'11111222,11111222,11111222' 
TABS,ioos:station:wmo:42046:1,2006-09-04T15:09:00Z,27.8903,-94.0367,4.0,2.432817297,44.00044298,4.23,'11111222,11111222,11111222' 
TABS,ioos:station:wmo:42046:1,2006-09-04T15:39:00Z,27.8903,-94.0367,4.0,2.294907406,58.17952158,3.74,'11111222,11111222,11111222' 
TABS,ioos:station:wmo:42046:1,2006-09-04T16:09:00Z,27.8903,-94.0367,4.0,2.277740108,61.40926188,3.48,'11111222,11111222,11111222' 
TABS,ioos:station:wmo:42046:1,2006-09-04T16:39:00Z,27.8903,-94.0367,4.0,2.48485412,74.11756555,3.58,'11111222,11111222,11111222' 
TABS,ioos:station:wmo:42046:1,2006-09-04T17:09:00Z,27.8903,-94.0367,4.0,2.282542442,65.68032734,3.49,'11111222,11111222,11111222' 
TABS,ioos:station:wmo:42046:1,2006-09-04T17:39:00Z,27.8903,-94.0367,4.0,2.042008815,52.96141659,3.36,'11111222,11111222,11111222' 
TABS,ioos:station:wmo:42046:1,2006-09-04T18:09:00Z,27.8903,-94.0367,4.0,1.95601636,73.97374911,3.18,'11111222,11111222,11111222' 
TABS,ioos:station:wmo:42046:1,2006-09-04T18:39:00Z,27.8903,-94.0367,4.0,2.107747613,61.36749164,3.15,'11111222,11111222,11111222' 
TABS,ioos:station:wmo:42046:1,2006-09-04T19:09:00Z,27.8903,-94.0367,4.0,2.531600284,69.41709296,4.06,'11111222,11111222,11111222' 
TABS,ioos:station:wmo:42046:1,2006-09-04T19:39:00Z,27.8903,-94.0367,4.0,2.388011725,50.77778987,3.55,'11111222,11111222,11111222' 
TABS,ioos:station:wmo:42046:1,2006-09-04T20:09:00Z,27.8903,-94.0367,4.0,2.518114374,52.58367796,5.14,'11111222,11111222,11111222' 
TABS,ioos:station:wmo:42046:1,2006-09-04T20:39:00Z,27.8903,-94.0367,4.0,2.376215478,36.0979891,4.47,'11111222,11111222,11111222' 
TABS,ioos:station:wmo:42046:1,2006-09-04T21:09:00Z,27.8903,-94.0367,4.0,2.156014842,37.08219979,4.79,'11111222,11111222,11111222' 
TABS,ioos:station:wmo:42046:1,2006-09-04T21:39:00Z,27.8903,-94.0367,4.0,2.262940565,26.22508507,3.97,'11111222,11111222,11111222' 
TABS,ioos:station:wmo:42046:1,2006-09-04T22:09:00Z,27.8903,-94.0367,4.0,1.792010045,37.06143835,3.86,'11111222,11111222,11111222' 
TABS,ioos:station:wmo:42046:1,2006-09-04T22:39:00Z,27.8903,-94.0367,4.0,2.538523193,22.22027477,4.21,'11111222,11111222,11111222' 
TABS,ioos:station:wmo:42046:1,2006-09-04T23:09:00Z,27.8903,-94.0367,4.0,2.173407463,47.79692129,3.99,'11111222,11111222,11111222' 
TABS,ioos:station:wmo:42046:1,2006-09-04T23:39:00Z,27.8903,-94.0367,4.0,4.060406384,16.1583583,6.34,'11111222,11111222,11111222' 
TABS,ioos:station:wmo:42046:1,2006-09-05T00:09:00Z,27.8903,-94.0367,4.0,3.526386252,11.94699571,5.55,'11111222,11111222,11111222' 
TABS,ioos:station:wmo:42046:1,2006-09-05T00:39:00Z,27.8903,-94.0367,4.0,3.886605202,21.74639828,6.18,'11111222,11111222,11111222' 
TABS,ioos:station:wmo:42046:1,2006-09-05T01:09:00Z,27.8903,-94.0367,4.0,3.440058139,42.40782367,5.72,'11111222,11111222,11111222' 
TABS,ioos:station:wmo:42046:1,2006-09-05T01:39:00Z,27.8903,-94.0367,4.0,4.699882977,49.05458319,7.22,'11111222,11111222,11111222' 
TABS,ioos:station:wmo:42046:1,2006-09-05T02:09:00Z,27.8903,-94.0367,4.0,4.07845559,47.98113856,6.09,'11111222,11111222,11111222' 
TABS,ioos:station:wmo:42046:1,2006-09-05T02:39:00Z,27.8903,-94.0367,4.0,3.915226686,35.43531371,6.36,'11111222,11111222,11111222' 
TABS,ioos:station:wmo:42046:1,2006-09-05T03:09:00Z,27.8903,-94.0367,4.0,4.074567462,35.91335597,6.18,'11111222,11111222,11111222' 
TABS,ioos:station:wmo:42046:1,2006-09-05T03:39:00Z,27.8903,-94.0367,4.0,4.102340795,49.94374716,6.75,'11111222,11111222,11111222' 
TABS,ioos:station:wmo:42046:1,2006-09-05T04:09:00Z,27.8903,-94.0367,4.0,4.206304792,48.0833376,6.45,'11111222,11111222,11111222' 
TABS,ioos:station:wmo:42046:1,2006-09-05T04:39:00Z,27.8903,-94.0367,4.0,4.165153058,45.68058522,6.32,'11111222,11111222,11111222' 
TABS,ioos:station:wmo:42046:1,2006-09-05T05:09:00Z,27.8903,-94.0367,4.0,4.334616477,44.71928372,6.57,'11111222,11111222,11111222' 
TABS,ioos:station:wmo:42046:1,2006-09-05T05:39:00Z,27.8903,-94.0367,4.0,3.893430364,47.70619085,6.4,'11111222,11111222,11111222' 
TABS,ioos:station:wmo:42046:1,2006-09-05T06:09:00Z,27.8903,-94.0367,4.0,3.672669329,55.31437334,5.77,'11111222,11111222,11111222' 
TABS,ioos:station:wmo:42046:1,2006-09-05T06:39:00Z,27.8903,-94.0367,4.0,3.699756749,38.63532181,5.64,'11111222,11111222,11111222' 
TABS,ioos:station:wmo:42046:1,2006-09-05T07:09:00Z,27.8903,-94.0367,4.0,3.543162429,59.09136023,5.34,'11111222,11111222,11111222' 
TABS,ioos:station:wmo:42046:1,2006-09-05T07:39:00Z,27.8903,-94.0367,4.0,3.246074552,53.51808709,5.6,'11111222,11111222,11111222' 
TABS,ioos:station:wmo:42046:1,2006-09-05T08:09:00Z,27.8903,-94.0367,4.0,3.390058997,52.79174417,5.35,'11111222,11111222,11111222' 
TABS,ioos:station:wmo:42046:1,2006-09-05T08:39:00Z,27.8903,-94.0367,4.0,3.685756367,48.95998688,6.21,'11111222,11111222,11111222' 
TABS,ioos:station:wmo:42046:1,2006-09-05T09:09:00Z,27.8903,-94.0367,4.0,3.602235417,42.63715668,5.5,'11111222,11111222,11111222' 
TABS,ioos:station:wmo:42046:1,2006-09-05T09:39:00Z,27.8903,-94.0367,4.0,3.352745144,48.99058808,5.22,'11111222,11111222,11111222' 
TABS,ioos:station:wmo:42046:1,2006-09-05T10:09:00Z,27.8903,-94.0367,4.0,3.276125761,55.19389747,5.22,'11111222,11111222,11111222' 
TABS,ioos:station:wmo:42046:1,2006-09-05T10:39:00Z,27.8903,-94.0367,4.0,3.190814943,39.27647043,5.59,'11111222,11111222,11111222' 
TABS,ioos:station:wmo:42046:1,2006-09-05T11:09:00Z,27.8903,-94.0367,4.0,3.1092282,41.74035466,5.06,'11111222,11111222,11111222' 
TABS,ioos:station:wmo:42046:1,2006-09-05T11:39:00Z,27.8903,-94.0367,4.0,2.848806768,26.92455814,5.2,'11111222,11111222,11111222' 
TABS,ioos:station:wmo:42046:1,2006-09-05T12:09:00Z,27.8903,-94.0367,4.0,2.658439392,28.78218913,4.22,'11111222,11111222,11111222' 
TABS,ioos:station:wmo:42046:1,2006-09-05T12:39:00Z,27.8903,-94.0367,4.0,3.020347662,6.654199026,4.74,'11111222,11111222,11111222' 
TABS,ioos:station:wmo:42046:1,2006-09-05T13:09:00Z,27.8903,-94.0367,4.0,3.385646172,8.321336317,5.54,'11111222,11111222,11111222' 
TABS,ioos:station:wmo:42046:1,2006-09-05T13:39:00Z,27.8903,-94.0367,4.0,3.213051509,357.5024966,5.41,'11111222,11111222,11111222' 
TABS,ioos:station:wmo:42046:1,2006-09-05T14:09:00Z,27.8903,-94.0367,4.0,3.100983715,10.40376782,4.85,'11111222,11111222,11111222' 
TABS,ioos:station:wmo:42046:1,2006-09-05T14:39:00Z,27.8903,-94.0367,4.0,3.256086608,20.49400133,5.37,'11111222,11111222,11111222' 
TABS,ioos:station:wmo:42046:1,2006-09-05T15:09:00Z,27.8903,-94.0367,4.0,3.231485726,8.00449968,5.48,'11111222,11111222,11111222' 
TABS,ioos:station:wmo:42046:1,2006-09-05T15:39:00Z,27.8903,-94.0367,4.0,3.112764045,27.14100848,5.25,'11111222,11111222,11111222' 
TABS,ioos:station:wmo:42046:1,2006-09-05T16:09:00Z,27.8903,-94.0367,4.0,3.562021898,12.31920599,5.42,'11111222,11111222,11111222' 
TABS,ioos:station:wmo:42046:1,2006-09-05T16:39:00Z,27.8903,-94.0367,4.0,3.779153344,23.71592353,5.4,'11111222,11111222,11111222' 
TABS,ioos:station:wmo:42046:1,2006-09-05T17:09:00Z,27.8903,-94.0367,4.0,4.223387266,29.66046677,6.46,'11111222,11111222,11111222' 
TABS,ioos:station:wmo:42046:1,2006-09-05T17:39:00Z,27.8903,-94.0367,4.0,4.191479452,19.94781327,6.63,'11111222,11111222,11111222' 
TABS,ioos:station:wmo:42046:1,2006-09-05T18:09:00Z,27.8903,-94.0367,4.0,4.492215489,16.8211601,6.73,'11111222,11111222,11111222' 
TABS,ioos:station:wmo:42046:1,2006-09-05T18:39:00Z,27.8903,-94.0367,4.0,5.024818405,16.41503083,7.06,'11111222,11111222,11111222' 
TABS,ioos:station:wmo:42046:1,2006-09-05T19:09:00Z,27.8903,-94.0367,4.0,5.447090967,26.37661623,7.17,'11111222,11111222,11111222' 
TABS,ioos:station:wmo:42046:1,2006-09-05T19:39:00Z,27.8903,-94.0367,4.0,4.934338861,7.686493248,6.74,'11111222,11111222,11111222' 
TABS,ioos:station:wmo:42046:1,2006-09-05T20:09:00Z,27.8903,-94.0367,4.0,5.908586972,8.075018285,7.94,'11111222,11111222,11111222' 
TABS,ioos:station:wmo:42046:1,2006-09-05T20:39:00Z,27.8903,-94.0367,4.0,5.465939992,8.203993988,7.67,'11111222,11111222,11111222' 
TABS,ioos:station:wmo:42046:1,2006-09-05T21:09:00Z,27.8903,-94.0367,4.0,5.802456376,5.042228819,7.79,'11111222,11111222,11111222' 
TABS,ioos:station:wmo:42046:1,2006-09-05T21:39:00Z,27.8903,-94.0367,4.0,5.870689908,6.749522038,8.42,'11111222,11111222,11111222' 
TABS,ioos:station:wmo:42046:1,2006-09-05T22:09:00Z,27.8903,-94.0367,4.0,6.54249188,11.55014351,9.09,'11111222,11111222,11111222' 
TABS,ioos:station:wmo:42046:1,2006-09-05T22:39:00Z,27.8903,-94.0367,4.0,7.102091241,9.236621811,9.7,'11111222,11111222,11111222' 
TABS,ioos:station:wmo:42046:1,2006-09-05T23:09:00Z,27.8903,-94.0367,4.0,6.345273832,12.28371626,9.2,'11111222,11111222,11111222' 
TABS,ioos:station:wmo:42046:1,2006-09-05T23:39:00Z,27.8903,-94.0367,4.0,6.589301936,3.044560866,9.46,'11111222,11111222,11111222' 
TABS,ioos:station:wmo:42046:1,2006-09-06T00:09:00Z,27.8903,-94.0367,4.0,6.509938556,6.349685824,9.25,'11111222,11111222,11111222' 
TABS,ioos:station:wmo:42046:1,2006-09-06T00:39:00Z,27.8903,-94.0367,4.0,6.081332091,9.942252756,9.0,'11111222,11111222,11111222' 
TABS,ioos:station:wmo:42046:1,2006-09-06T01:09:00Z,27.8903,-94.0367,4.0,6.491301873,358.8522644,9.44,'11111222,11111222,11111222' 
TABS,ioos:station:wmo:42046:1,2006-09-06T01:39:00Z,27.8903,-94.0367,4.0,6.081850047,358.5865323,9.55,'11111222,11111222,11111222' 
TABS,ioos:station:wmo:42046:1,2006-09-06T02:09:00Z,27.8903,-94.0367,4.0,5.809931153,6.721133161,9.03,'11111222,11111222,11111222' 
TABS,ioos:station:wmo:42046:1,2006-09-06T02:39:00Z,27.8903,-94.0367,4.0,6.60739737,6.866654033,9.1,'11111222,11111222,11111222' 
TABS,ioos:station:wmo:42046:1,2006-09-06T03:09:00Z,27.8903,-94.0367,4.0,5.828353112,8.783301321,8.84,'11111222,11111222,11111222' 
TABS,ioos:station:wmo:42046:1,2006-09-06T03:39:00Z,27.8903,-94.0367,4.0,6.067833221,11.30969557,9.17,'11111222,11111222,11111222' 
TABS,ioos:station:wmo:42046:1,2006-09-06T04:09:00Z,27.8903,-94.0367,4.0,5.762256502,19.25225051,8.51,'11111222,11111222,11111222' 
TABS,ioos:station:wmo:42046:1,2006-09-06T04:39:00Z,27.8903,-94.0367,4.0,6.348015438,19.60499658,9.19,'11111222,11111222,11111222' 
TABS,ioos:station:wmo:42046:1,2006-09-06T05:09:00Z,27.8903,-94.0367,4.0,6.301301453,14.52117112,8.86,'11111222,11111222,11111222' 
TABS,ioos:station:wmo:42046:1,2006-09-06T05:39:00Z,27.8903,-94.0367,4.0,5.483812542,21.27729457,8.29,'11111222,11111222,11111222' 
TABS,ioos:station:wmo:42046:1,2006-09-06T06:09:00Z,27.8903,-94.0367,4.0,5.600321419,25.37510392,8.37,'11111222,11111222,11111222' 
TABS,ioos:station:wmo:42046:1,2006-09-06T06:39:00Z,27.8903,-94.0367,4.0,5.433691195,26.80056182,8.36,'11111222,11111222,11111222' 
TABS,ioos:station:wmo:42046:1,2006-09-06T07:09:00Z,27.8903,-94.0367,4.0,5.462984532,28.30047913,8.23,'11111222,11111222,11111222' 
TABS,ioos:station:wmo:42046:1,2006-09-06T07:39:00Z,27.8903,-94.0367,4.0,5.223485426,26.3685614,8.19,'11111222,11111222,11111222' 
TABS,ioos:station:wmo:42046:1,2006-09-06T08:09:00Z,27.8903,-94.0367,4.0,5.380334562,36.23064256,7.73,'11111222,11111222,11111222' 
TABS,ioos:station:wmo:42046:1,2006-09-06T08:39:00Z,27.8903,-94.0367,4.0,4.740137129,39.26359066,7.75,'11111222,11111222,11111222' 
TABS,ioos:station:wmo:42046:1,2006-09-06T09:09:00Z,27.8903,-94.0367,4.0,4.900795854,33.85190475,7.83,'11111222,11111222,11111222' 
TABS,ioos:station:wmo:42046:1,2006-09-06T09:39:00Z,27.8903,-94.0367,4.0,5.156442572,32.88849283,7.64,'11111222,11111222,11111222' 
TABS,ioos:station:wmo:42046:1,2006-09-06T10:09:00Z,27.8903,-94.0367,4.0,4.051765047,26.69125885,7.39,'11111222,11111222,11111222' 
TABS,ioos:station:wmo:42046:1,2006-09-06T10:39:00Z,27.8903,-94.0367,4.0,4.776274699,26.35018917,7.25,'11111222,11111222,11111222' 
TABS,ioos:station:wmo:42046:1,2006-09-06T11:09:00Z,27.8903,-94.0367,4.0,3.985398349,27.65782889,7.43,'11111222,11111222,11111222' 
TABS,ioos:station:wmo:42046:1,2006-09-06T11:39:00Z,27.8903,-94.0367,4.0,3.681086796,19.02535109,6.44,'11111222,11111222,11111222' 
TABS,ioos:station:wmo:42046:1,2006-09-06T12:09:00Z,27.8903,-94.0367,4.0,3.296331294,25.7096832,6.14,'11111222,11111222,11111222' 
TABS,ioos:station:wmo:42046:1,2006-09-06T12:39:00Z,27.8903,-94.0367,4.0,3.689891597,4.196027341,5.98,'11111222,11111222,11111222' 
TABS,ioos:station:wmo:42046:1,2006-09-06T13:09:00Z,27.8903,-94.0367,4.0,4.13591586,12.99437595,6.67,'11111222,11111222,11111222' 
TABS,ioos:station:wmo:42046:1,2006-09-06T13:39:00Z,27.8903,-94.0367,4.0,3.710121292,37.33289798,5.51,'11111222,11111222,11111222' 
TABS,ioos:station:wmo:42046:1,2006-09-06T14:09:00Z,27.8903,-94.0367,4.0,4.047085371,34.63218506,6.59,'11111222,11111222,11111222' 
TABS,ioos:station:wmo:42046:1,2006-09-06T14:39:00Z,27.8903,-94.0367,4.0,7.225074394,33.99769818,10.15,'11111222,11111222,11111222' 
TABS,ioos:station:wmo:42046:1,2006-09-06T15:09:00Z,27.8903,-94.0367,4.0,1.41509717,68.87490934,6.03,'11111222,11111222,11111222' 
TABS,ioos:station:wmo:42046:1,2006-09-06T15:39:00Z,27.8903,-94.0367,4.0,6.043980476,6.078248724,8.71,'11111222,11111222,11111222' 
TABS,ioos:station:wmo:42046:1,2006-09-06T16:09:00Z,27.8903,-94.0367,4.0,5.256814625,16.12480467,8.17,'11111222,11111222,11111222' 
TABS,ioos:station:wmo:42046:1,2006-09-06T16:39:00Z,27.8903,-94.0367,4.0,5.449889907,9.185551701,7.66,'11111222,11111222,11111222' 
TABS,ioos:station:wmo:42046:1,2006-09-06T17:09:00Z,27.8903,-94.0367,4.0,4.633961588,6.940756739,6.94,'11111222,11111222,11111222' 
TABS,ioos:station:wmo:42046:1,2006-09-06T17:39:00Z,27.8903,-94.0367,4.0,4.47825859,9.25175413,6.82,'11111222,11111222,11111222' 
TABS,ioos:station:wmo:42046:1,2006-09-06T18:09:00Z,27.8903,-94.0367,4.0,4.227256794,7.612328436,6.2,'11111222,11111222,11111222' 
TABS,ioos:station:wmo:42046:1,2006-09-06T18:39:00Z,27.8903,-94.0367,4.0,4.065587288,9.485258099,6.31,'11111222,11111222,11111222' 
TABS,ioos:station:wmo:42046:1,2006-09-06T19:09:00Z,27.8903,-94.0367,4.0,3.766497046,9.011936676,5.71,'11111222,11111222,11111222' 
TABS,ioos:station:wmo:42046:1,2006-09-06T19:39:00Z,27.8903,-94.0367,4.0,3.518934498,21.68020755,5.87,'11111222,11111222,11111222' 
TABS,ioos:station:wmo:42046:1,2006-09-06T20:09:00Z,27.8903,-94.0367,4.0,3.9734368,11.76216905,5.98,'11111222,11111222,11111222' 
TABS,ioos:station:wmo:42046:1,2006-09-06T20:39:00Z,27.8903,-94.0367,4.0,3.206134745,8.610063346,5.56,'11111222,11111222,11111222' 
TABS,ioos:station:wmo:42046:1,2006-09-06T21:09:00Z,27.8903,-94.0367,4.0,3.514612354,13.32428964,5.62,'11111222,11111222,11111222' 
TABS,ioos:station:wmo:42046:1,2006-09-06T21:39:00Z,27.8903,-94.0367,4.0,3.27482824,9.490852494,5.19,'11111222,11111222,11111222' 
TABS,ioos:station:wmo:42046:1,2006-09-06T22:09:00Z,27.8903,-94.0367,4.0,2.466191396,21.1540109,4.46,'11111222,11111222,11111222' 
TABS,ioos:station:wmo:42046:1,2006-09-06T22:39:00Z,27.8903,-94.0367,4.0,3.073662311,2.797026523,4.86,'11111222,11111222,11111222' 
TABS,ioos:station:wmo:42046:1,2006-09-06T23:09:00Z,27.8903,-94.0367,4.0,3.083585575,19.31609719,5.3,'11111222,11111222,11111222' 
TABS,ioos:station:wmo:42046:1,2006-09-06T23:39:00Z,27.8903,-94.0367,4.0,3.496069221,20.24888292,5.81,'11111222,11111222,11111222' 
TABS,ioos:station:wmo:42046:1,2006-09-07T00:09:00Z,27.8903,-94.0367,4.0,3.212864765,15.89615659,5.07,'11111222,11111222,11111222' 
TABS,ioos:station:wmo:42046:1,2006-09-07T00:39:00Z,27.8903,-94.0367,4.0,2.949440625,20.64673208,5.3,'11111222,11111222,11111222' 
TABS,ioos:station:wmo:42046:1,2006-09-07T01:09:00Z,27.8903,-94.0367,4.0,2.428662183,18.73310738,4.76,'11111222,11111222,11111222' 
TABS,ioos:station:wmo:42046:1,2006-09-07T01:39:00Z,27.8903,-94.0367,4.0,2.493591787,5.984727861,3.99,'11111222,11111222,11111222' 
TABS,ioos:station:wmo:42046:1,2006-09-07T02:09:00Z,27.8903,-94.0367,4.0,2.135813662,11.88841978,3.83,'11111222,11111222,11111222' 
TABS,ioos:station:wmo:42046:1,2006-09-07T02:39:00Z,27.8903,-94.0367,4.0,2.406844407,12.47692701,4.25,'11111222,11111222,11111222' 
TABS,ioos:station:wmo:42046:1,2006-09-07T03:09:00Z,27.8903,-94.0367,4.0,2.200545387,7.835296325,3.69,'11111222,11111222,11111222' 
TABS,ioos:station:wmo:42046:1,2006-09-07T03:39:00Z,27.8903,-94.0367,4.0,1.942807247,14.60822231,3.6,'11111222,11111222,11111222' 
TABS,ioos:station:wmo:42046:1,2006-09-07T04:09:00Z,27.8903,-94.0367,4.0,1.852700731,356.9057387,3.53,'11111222,11111222,11111222' 
TABS,ioos:station:wmo:42046:1,2006-09-07T04:39:00Z,27.8903,-94.0367,4.0,1.940412327,358.8186034,3.4,'11111222,11111222,11111222' 
TABS,ioos:station:wmo:42046:1,2006-09-07T05:09:00Z,27.8903,-94.0367,4.0,2.051974659,2.513593899,3.63,'11111222,11111222,11111222' 
TABS,ioos:station:wmo:42046:1,2006-09-07T05:39:00Z,27.8903,-94.0367,4.0,1.94010309,0.590445375,3.42,'11111222,11111222,11111222' 
TABS,ioos:station:wmo:42046:1,2006-09-07T06:09:00Z,27.8903,-94.0367,4.0,1.723861943,348.6247008,3.42,'11111222,11111222,11111222' 
TABS,ioos:station:wmo:42046:1,2006-09-07T06:39:00Z,27.8903,-94.0367,4.0,1.50029997,1.1455497,2.71,'11111222,11111222,11111222' 
TABS,ioos:station:wmo:42046:1,2006-09-07T07:09:00Z,27.8903,-94.0367,4.0,1.661114084,348.8928188,3.34,'11111222,11111222,11111222' 
TABS,ioos:station:wmo:42046:1,2006-09-07T07:39:00Z,27.8903,-94.0367,4.0,1.850675552,1.54794362,3.34,'11111222,11111222,11111222' 
TABS,ioos:station:wmo:42046:1,2006-09-07T08:09:00Z,27.8903,-94.0367,4.0,1.903181547,3.313207193,3.79,'11111222,11111222,11111222' 
TABS,ioos:station:wmo:42046:1,2006-09-07T08:39:00Z,27.8903,-94.0367,4.0,1.730028901,0.330974555,3.25,'11111222,11111222,11111222' 
TABS,ioos:station:wmo:42046:1,2006-09-07T09:09:00Z,27.8903,-94.0367,4.0,2.105350327,4.085396767,3.42,'11111222,11111222,11111222' 